Weather History for KBML - January, 2005

Change the Weather History Date:

Monday, January 31, 2005

  Actual Average Record
Temperature  
Mean Temperature 10 °F -  
Max Temperature 32 °F 24 °F 55 °F (2013)
Min Temperature -13 °F 1 °F -25 °F (1999)
Degree Days  
Heating Degree Days 56    
Moisture  
Dew Point -5 °F    
Average Humidity 68    
Maximum Humidity 88    
Minimum Humidity 23    
Precipitation  
Precipitation 0.00 in - - ()
Sea Level Pressure  
Sea Level Pressure 30.44 in    
Wind  
Wind Speed 0 mph (North)    
Max Wind Speed 4 mph    
Max Gust Speed -    
Visibility 10 miles    
Events      
Averages and records for this station are not official NWS values.
T = Trace of Precipitation, MM = Missing Value Source: NWS Daily Summary

Daily Weather History Graph

Daily Weather History Graph

Search for Another Location

Airport or City:

Trip Planner

Search our weather history database for the weather conditions in past years. The results will help you decide how hot, cold, wet, or windy it might be!

Date:

Astronomy

Jan. 31, 2005 Rise Set
Actual Time 7:04 AM EST 4:52 PM EST
Civil Twilight 6:33 AM EST 5:23 PM EST
Nautical Twilight 5:58 AM EST 5:58 PM EST
Astronomical Twilight 5:24 AM EST 6:32 PM EST
Moon 11:31 PM EST (1/31) 9:47 AM EST (1/31)
Length of Visible Light 10h 50m
Length of Day
9h 48m
Waning Gibbous, 67% of the Moon is Illuminated
Jan 31
Waning Gibbous
Feb 2
Last Quarter
Feb 8
New
Feb 15
First Quarter
Feb 23
Full

Hourly Weather History & Observations

Time (EST) Temp. Windchill Dew Point Humidity Pressure Visibility Wind Dir Wind Speed Gust Speed Precip Events Conditions
12:52 AM -6.0 °F - -11.0 °F 79% 30.36 in 10.0 mi Calm Calm - N/A   Clear
1:52 AM -9.0 °F - -14.1 °F 79% 30.38 in 10.0 mi Calm Calm - N/A   Clear
2:52 AM -11.0 °F - -17.0 °F 75% 30.39 in 10.0 mi Calm Calm - N/A   Clear
3:52 AM -11.0 °F - -17.0 °F 75% 30.41 in 10.0 mi Calm Calm - N/A   Clear
4:52 AM -13.0 °F - -18.9 °F 75% 30.43 in 10.0 mi Calm Calm - N/A   Clear
5:52 AM -11.9 °F - -17.0 °F 78% 30.45 in 10.0 mi Calm Calm - N/A   Clear
7:52 AM -11.9 °F - -16.1 °F 82% 30.50 in 5.0 mi Calm Calm - N/A   Clear
8:52 AM -6.0 °F - -11.0 °F 79% 30.49 in 8.0 mi Calm Calm - N/A   Clear
9:52 AM 3.9 °F - -2.0 °F 76% 30.48 in 10.0 mi Calm Calm - N/A   Clear
10:52 AM 12.9 °F - 3.0 °F 65% 30.48 in 10.0 mi Calm Calm - N/A   Clear
11:52 AM 21.0 °F - 3.9 °F 48% 30.44 in 10.0 mi Calm Calm - N/A   Clear
12:52 PM 28.0 °F 24.2 °F -0.0 °F 30% 30.42 in 10.0 mi North 3.5 mph - N/A   Clear
1:52 PM 30.0 °F - -2.0 °F 25% 30.40 in 10.0 mi Calm Calm - N/A   Clear
2:52 PM 32.0 °F - -2.0 °F 23% 30.40 in 10.0 mi Calm Calm - N/A   Clear
4:52 PM 23.0 °F - 6.1 °F 48% 30.42 in 10.0 mi Calm Calm - N/A   Clear
5:52 PM 16.0 °F - 5.0 °F 62% 30.44 in 10.0 mi Calm Calm - N/A   Clear
6:52 PM 12.0 °F - 5.0 °F 73% 30.45 in 10.0 mi Calm Calm - N/A   Clear
7:52 PM 7.0 °F - 1.9 °F 80% 30.45 in 10.0 mi Calm Calm - N/A   Clear
8:52 PM 5.0 °F - 1.9 °F 87% 30.46 in 10.0 mi Calm Calm - N/A   Clear
9:52 PM 1.9 °F - -0.9 °F 88% 30.45 in 10.0 mi Calm Calm - N/A   Clear
10:52 PM -0.0 °F - -4.0 °F 83% 30.44 in 10.0 mi Calm Calm - N/A   Clear
11:52 PM -0.0 °F - -4.0 °F 83% 30.43 in 10.0 mi Calm Calm - N/A   Clear